This demonstration page uses our WeatherBlox Daily Observations layout. Learn more.

Left ArrowRight Arrow

Hourly Observations for July 20, 2016

Temp ( °F °C ) Dew Point ( °F °C ) Humidity (%) Winds ( mph kmh ) Pressure ( in mb ) Visibility ( mi km ) Precip ( " mm )
12:59 am 00:59 Mostly Clear 70 21.1 68 20 93 93 NW 3 6 30.14 1021 10 16 0.00 0.00
1:59 am 01:59 Mostly Clear 70 21.1 68 20 93 93 SSW 3 6 30.15 1021 10 16 0.00 0.00
2:59 am 02:59 Partly Cloudy 71 21.7 69 20.6 94 94 SE 5 7 30.14 1021 10 16 0.00 0.00
3:59 am 03:59 Mostly Clear 71 21.7 68 20 90 90 E 5 7 30.15 1021 10 16 0.00 0.00
4:59 am 04:59 Partly Cloudy 72 22.2 68 20 87 87 Calm 30.14 1021 10 16 0.00 0.00
5:37 am 05:37 Mostly Cloudy 71 21.7 68 20 90 90 S 3 6 30.15 1021 9 14 0.00 0.00
5:59 am 05:59 Partly Cloudy 71 21.7 68 20 90 90 Calm 30.15 1021 10 16 0.00 0.00
6:59 am 06:59 Partly Cloudy with Mist and Fog 75 23.9 71 21.7 88 88 N 5 7 30.16 1021 5 8 0.00 0.00
7:59 am 07:59 Partly Cloudy 76 24.4 71 21.7 85 85 NW 5 7 30.17 1022 7 11 0.00 0.00
8:59 am 08:59 Partly Cloudy 80 26.7 72 22.2 76 76 NNE 5 7 30.18 1022 9 14 0.00 0.00
9:59 am 09:59 Partly Cloudy 82 27.8 73 22.8 74 74 VRB 5 7 30.17 1022 9 14 0.00 0.00
10:59 am 10:59 Partly Cloudy 84 28.9 73 22.8 70 70 NE 6 9 30.18 1022 10 16 0.00 0.00
11:59 am 11:59 Mostly Sunny 85 29.4 69 20.6 59 59 NE 6 9 30.17 1022 10 16 0.00 0.00
12:59 pm 12:59 Mostly Sunny 87 30.6 68 20 53 53 NE 8 13 30.18 1022 10 16 0.00 0.00
1:59 pm 13:59 Partly Cloudy 86 30 68 20 55 55 E 7 11 30.17 1022 10 16 0.00 0.00
2:59 pm 14:59 Partly Cloudy 87 30.6 72 22.2 61 61 ENE 10 17 30.16 1021 10 16 0.00 0.00
3:59 pm 15:59 Partly Cloudy 85 29.4 72 22.2 65 65 ENE 13 20 30.14 1021 10 16 0.00 0.00
4:59 pm 16:59 Partly Cloudy 86 30 68 20 55 55 ENE 9 15 30.14 1021 10 16 0.00 0.00
5:59 pm 17:59 Partly Cloudy 84 28.9 68 20 59 59 E 7 11 30.13 1020 10 16 0.00 0.00
6:59 pm 18:59 Partly Cloudy 83 28.3 69 20.6 63 63 ENE 6 9 30.14 1021 10 16 0.00 0.00
7:59 pm 19:59 Mostly Cloudy 82 27.8 69 20.6 65 65 ENE 6 9 30.15 1021 10 16 0.00 0.00
8:59 pm 20:59 Partly Cloudy 77 25 69 20.6 77 77 SE 3 6 30.15 1021 10 16 0.00 0.00
9:59 pm 21:59 Clear 75 23.9 69 20.6 82 82 Calm 30.17 1022 10 16 0.00 0.00
10:59 pm 22:59 Clear 74 23.3 70 21.1 88 88 Calm 30.17 1022 10 16 0.00 0.00
11:59 pm 23:59 Clear 75 23.9 70 21.1 84 84 Calm 30.18 1022 10 16 0.00 0.00

Powered by AerisWeather